FW1302 Weather Reports


Display with metric or nautical units.
time (UTC)temp
F
wind
direction
speed
MPH
gust
MPH
rain 1hr
in
rain 24hr
in
rain mn
in
humidity
%
barometer
mb
20260904071319 54 360 0.0 0.0 0.00 0.00 0.00 92 1021.8
20260904070320 54 8 0.0 3.0 0.00 0.00 0.00 92 1021.8
20260904065330 54 360 0.0 0.0 0.00 0.00 0.00 90 1021.7
20260904065230 54 360 0.0 0.0 0.00 0.00 0.00 90 1021.7
20260904064232 55 337 0.0 0.0 0.00 0.00 0.00 92 1021.8
20260904063330 55 337 0.0 0.0 0.00 0.00 0.00 91 1021.7
20260904062331 55 337 3.0 4.0 0.00 0.00 0.00 89 1021.7
20260904062230 55 337 4.0 8.0 0.00 0.00 0.00 89 1021.7
20260904060329 56 315 5.0 8.0 0.00 0.00 0.00 87 1021.6
20260904055329 55 325 4.0 6.0 0.00 0.00 0.00 88 1021.7
20260904055227 55 337 3.0 7.0 0.00 0.00 0.00 88 1021.8
20260904054228 55 344 2.0 7.0 0.00 0.00 0.00 88 1021.7
20260904053328 55 343 2.0 9.0 0.00 0.00 0.00 88 1021.5
20260904052329 55 330 5.0 8.0 0.00 0.00 0.00 89 1021.5
20260904051428 55 339 0.0 7.0 0.00 0.00 0.00 89 1021.6
20260904045429 55 22 4.0 4.0 0.00 0.00 0.00 90 1021.7
20260904044429 55 360 5.0 7.0 0.00 0.00 0.00 91 1021.5
20260904043429 56 360 4.0 6.0 0.00 0.00 0.00 90 1021.5
20260904042429 56 360 1.0 4.0 0.00 0.00 0.00 92 1021.6
20260904040430 56 6 5.0 8.0 0.00 0.00 0.00 92 1021.5
20260904035430 56 360 8.0 9.0 0.00 0.00 0.00 93 1021.5
20260904034429 56 360 2.0 6.0 0.00 0.00 0.00 92 1021.5
20260904033528 56 337 3.0 7.0 0.00 0.00 0.00 92 1021.5
20260904032547 56 45 2.0 4.0 0.00 0.00 0.00 93 1021.4
20260904031629 56 135 0.0 0.0 0.00 0.00 0.00 93 1021.1
20260904030631 56 135 3.0 4.0 0.00 0.00 0.00 93 1021.2
20260904025629 56 157 1.0 2.0 0.00 0.00 0.00 93 1021.1
20260904024630 57 180 0.0 0.0 0.00 0.00 0.00 93 1021.0
20260904024531 57 180 0.0 0.0 0.00 0.00 0.00 93 1021.0
20260904022531 58 180 0.0 0.0 0.00 0.00 0.00 92 1021.0
20260904021529 58 180 0.0 0.0 0.00 0.00 0.00 91 1020.9
20260904020532 58 180 0.0 0.0 0.00 0.00 0.00 90 1020.9
20260904015629 58 201 0.0 0.0 0.00 0.00 0.00 91 1021.0
20260904013629 58 225 2.0 5.0 0.00 0.00 0.00 90 1020.9
20260904012629 58 225 3.0 4.0 0.00 0.00 0.00 89 1020.9
20260904011630 59 180 0.0 0.0 0.00 0.01 0.00 87 1020.8
20260904005729 60 223 2.0 3.0 0.00 0.01 0.00 84 1021.0
20260904004828 60 225 5.0 6.0 0.00 0.01 0.00 84 1021.0
20260904003829 61 220 3.0 5.0 0.00 0.01 0.00 82 1020.9
20260904002829 61 225 3.0 4.0 0.00 0.01 0.00 78 1020.7
20260904000928 62 360 2.0 3.0 0.00 0.01 0.00 76 1020.6
20260903235930 62 22 0.0 1.0 0.00 0.01 0.00 77 1020.6
20260903235832 62 22 1.0 2.0 0.00 0.01 0.00 76 1020.5
20260903234929 62 22 0.0 1.0 0.00 0.01 0.00 76 1020.6
20260903234028 63 22 4.0 4.0 0.00 0.01 0.00 77 1020.7
20260903233030 63 45 2.0 4.0 0.00 0.01 0.00 87 1020.8
20260903230029 60 157 1.0 2.0 0.00 0.01 0.00 85 1021.3
20260903225029 60 157 1.0 2.0 0.00 0.01 0.00 83 1021.4
20260903224128 60 164 2.0 4.0 0.00 0.01 0.00 80 1021.4
20260903221228 61 225 4.0 5.0 0.00 0.01 0.00 79 1021.5
20260903220230 61 221 1.0 3.0 0.00 0.01 0.00 80 1021.4
20260903215229 60 221 1.0 2.0 0.00 0.01 0.00 80 1021.5
20260903214228 60 225 1.0 3.0 0.00 0.01 0.00 81 1021.5
20260903213228 59 214 3.0 5.0 0.00 0.01 0.00 83 1021.4
20260903212229 59 222 5.0 9.0 0.00 0.01 0.00 85 1021.3
20260903211230 58 228 3.0 4.0 0.00 0.01 0.00 85 1021.4
20260903210329 58 157 1.0 3.0 0.00 0.01 0.00 84 1021.4
20260903204332 60 216 8.0 11.0 0.00 0.01 0.00 75 1021.3
20260903203429 61 227 11.0 15.0 0.00 0.01 0.00 78 1021.2
20260903200529 61 45 0.0 0.0 0.00 0.01 0.00 75 1020.9
20260903194529 61 45 6.0 7.0 0.00 0.01 0.00 75 1020.9
20260903193628 61 45 7.0 10.0 0.00 0.01 0.00 73 1021.0
20260903192629 62 45 5.0 7.0 0.00 0.01 0.00 71 1021.0
20260903191728 62 28 7.0 8.0 0.00 0.01 0.00 73 1021.1
20260903190734 61 45 5.0 7.0 0.00 0.01 0.00 75 1021.2
20260903185729 61 45 4.0 6.0 0.00 0.01 0.00 75 1021.3
20260903183828 60 45 3.0 4.0 0.00 0.01 0.00 78 1021.7
20260903182829 59 45 3.0 4.0 0.00 0.01 0.00 78 1021.7
20260903180829 59 45 5.0 7.0 0.00 0.01 0.00 81 1021.7
20260903175828 59 45 6.0 7.0 0.00 0.01 0.00 85 1021.7
20260903173828 58 45 6.0 7.0 0.00 0.01 0.00 89 1021.8
20260903172831 57 45 4.0 6.0 0.00 0.01 0.00 91 1021.8
20260903171927 56 45 3.0 4.0 0.00 0.01 0.00 93 1022.0
20260903170828 57 34 5.0 7.0 0.00 0.01 0.00 94 1022.0
20260903165828 56 360 2.0 5.0 0.00 0.01 0.00 93 1022.0
20260903164828 56 180 0.0 0.0 0.00 0.01 0.00 92 1022.0
20260903163829 55 180 0.0 0.0 0.00 0.01 0.00 92 1022.3
20260903162830 55 180 0.0 0.0 0.00 0.01 0.00 92 1022.3
20260903162728 55 180 0.0 0.0 0.00 0.01 0.00 93 1022.4
20260903161730 55 180 0.0 0.0 0.00 0.01 0.00 92 1022.4
20260903160728 55 180 1.0 5.0 0.00 0.01 0.00 93 1022.4
20260903155730 55 90 0.0 2.0 0.00 0.01 0.00 94 1022.1
20260903154829 55 45 2.0 3.0 0.00 0.01 0.00 93 1022.0
20260903153829 55 90 0.0 0.0 0.00 0.01 0.00 93 1021.9
20260903152830 55 90 3.0 6.0 0.00 0.01 0.00 94 1021.9
20260903151829 55 46 1.0 3.0 0.00 0.01 0.00 94 1021.8
20260903150829 55 35 4.0 7.0 0.00 0.01 0.00 95 1021.9
20260903145829 55 270 0.0 1.0 0.00 0.01 0.00 95 1021.9
20260903144828 54 63 0.0 0.0 0.00 0.01 0.00 96 1021.7
20260903143828 54 47 2.0 4.0 0.00 0.01 0.00 96 1021.7
20260903142830 54 22 0.0 0.0 0.00 0.01 0.00 95 1021.6
20260903141828 54 22 0.0 1.0 0.00 0.01 0.00 96 1021.5
20260903140832 55 22 0.0 1.0 0.00 0.01 0.00 95 1021.4
20260903135831 54 45 0.0 0.0 0.00 0.01 0.00 96 1021.4
20260903134928 54 90 0.0 0.0 0.00 0.01 0.00 96 1021.5
20260903134829 54 90 0.0 0.0 0.00 0.01 0.00 95 1021.4
20260903133829 54 112 1.0 4.0 0.00 0.01 0.00 96 1021.4
20260903132828 54 112 3.0 3.0 0.00 0.01 0.00 95 1021.3
20260903131829 54 112 0.0 0.0 0.00 0.01 0.00 95 1021.3
20260903125828 54 112 0.0 0.0 0.00 0.01 0.00 95 1021.2
20260903123829 54 112 0.0 1.0 0.00 0.01 0.00 95 1021.1
20260903122829 54 112 1.0 2.0 0.00 0.01 0.00 96 1021.3
20260903121830 54 112 1.0 2.0 0.00 0.01 0.00 95 1021.2
20260903120828 54 112 1.0 1.0 0.00 0.01 0.00 95 1021.2
20260903115828 54 112 0.0 0.0 0.00 0.01 0.00 95 1021.2
20260903114829 54 112 1.0 2.0 0.00 0.01 0.00 95 1021.3
20260903113829 54 112 2.0 2.0 0.00 0.01 0.00 95 1021.2
20260903110830 54 112 0.0 0.0 0.00 0.01 0.00 94 1021.3
20260903110729 54 112 0.0 0.0 0.00 0.01 0.00 95 1021.3
20260903105731 54 135 0.0 0.0 0.00 0.01 0.00 94 1021.1
20260903104828 54 135 0.0 0.0 0.00 0.01 0.00 94 1021.1
20260903103829 54 135 0.0 0.0 0.00 0.01 0.00 94 1021.2
20260903102830 54 135 4.0 5.0 0.00 0.01 0.00 94 1020.9
20260903095928 54 135 0.0 1.0 0.00 0.01 0.00 93 1020.8
20260903094930 54 135 2.0 3.0 0.00 0.01 0.00 94 1020.7
20260903093929 55 135 3.0 3.0 0.00 0.01 0.00 92 1020.8
20260903093830 55 135 3.0 3.0 0.00 0.01 0.00 93 1020.9
20260903092929 55 180 0.0 0.0 0.00 0.01 0.00 92 1020.9
20260903092831 55 180 0.0 0.0 0.00 0.01 0.00 92 1020.8
20260903085931 56 180 0.0 2.0 0.00 0.01 0.00 89 1020.8
20260903084928 56 223 2.0 4.0 0.00 0.01 0.00 89 1021.0
20260903082929 56 185 0.0 4.0 0.00 0.01 0.00 88 1020.6
20260903081029 57 225 6.0 10.0 0.00 0.01 0.00 90 1020.5
20260903080029 56 225 8.0 14.0 0.00 0.01 0.00 92 1020.6
20260903075030 56 219 4.0 7.0 0.00 0.01 0.00 93 1020.6
20260903074129 56 226 8.0 11.0 0.00 0.01 0.00 93 1020.7
20260903073129 55 202 3.0 4.0 0.00 0.01 0.00 94 1020.6
20260903072130 55 180 0.0 0.0 0.00 0.01 0.00 94 1020.3